Powrót do katalogu

STARLINK-32375

AktywnyŁącznośćVLEO
NORAD 61070·PAYLOAD·🇺🇸 United States

Wystrzelony Sep 13, 2024 z Vandenberg Space Force Base

Loading…

Następne Przeloty (najbliższe 24 godziny)

TLE

ŚwieżeSource: CelesTrak SupGP

Epoka: Sep 15, 2026, 02:56 UTC

1 61070C 24164W   26258.12270833  .00009285  00000+0  27428-3 0  2587
2 61070  53.1590 290.5419 0001213  90.4673 144.5373 15.34390752    12

Śledź STARLINK-32375 w czasie rzeczywistym z AllMySat

Download on the App Store